GW3513 Weather Reports


Display with metric or nautical units.
time (UTC)temp
F
wind
direction
speed
MPH
gust
MPH
rain 1hr
in
rain 24hr
in
rain mn
in
humidity
%
barometer
mb
20260503234446 79 161 0.0 0.0 0.00 0.00 0.00 41 1014.5
20260503233945 79 161 0.0 0.0 0.00 0.00 0.00 41 1014.6
20260503233440 78 161 0.0 0.0 0.00 0.00 0.00 40 1014.6
20260503232937 79 161 0.0 0.0 0.00 0.00 0.00 39 1014.5
20260503232434 80 161 0.0 0.0 0.00 0.00 0.00 42 1014.6
20260503231932 81 161 0.0 0.0 0.00 0.00 0.00 35 1014.7
20260503231429 83 161 0.0 0.0 0.00 0.00 0.00 39 1014.7
20260503230926 85 161 0.0 0.0 0.00 0.00 0.00 33 1014.5
20260503230422 87 161 0.0 0.0 0.00 0.00 0.00 35 1014.8
20260503225920 87 160 0.0 0.0 0.00 0.00 0.00 33 1014.7
20260503225416 86 161 0.0 0.0 0.00 0.00 0.00 34 1014.7
20260503224912 87 161 0.0 0.0 0.00 0.00 0.00 32 1014.5
20260503224409 86 161 0.0 0.0 0.00 0.00 0.00 35 1014.7
20260503223907 86 161 0.0 0.0 0.00 0.00 0.00 35 1014.7
20260503223405 88 161 0.0 0.0 0.00 0.00 0.00 27 1014.7
20260503222900 90 161 0.0 0.0 0.00 0.00 0.00 33 1014.6
20260503222359 88 161 0.0 0.0 0.00 0.00 0.00 36 1014.5
20260503221856 90 161 0.0 0.0 0.00 0.00 0.00 31 1014.9
20260503221355 90 161 0.0 0.0 0.00 0.00 0.00 30 1015.0
20260503220850 90 161 0.0 0.0 0.00 0.00 0.00 28 1015.0
20260503220347 91 161 0.0 0.0 0.00 0.00 0.00 29 1015.1
20260503215844 92 161 0.0 0.0 0.00 0.00 0.00 30 1015.2
20260503215342 94 161 0.0 0.0 0.00 0.00 0.00 28 1015.2
20260503214839 94 161 0.0 0.0 0.00 0.00 0.00 29 1015.3
20260503214336 93 161 0.0 0.0 0.00 0.00 0.00 30 1015.3
20260503213833 95 161 0.0 0.0 0.00 0.00 0.00 28 1015.2
20260503213331 95 161 0.0 0.0 0.00 0.00 0.00 27 1015.4
20260503212828 93 161 0.0 0.0 0.00 0.00 0.00 28 1015.4
20260503212326 95 161 0.0 0.0 0.00 0.00 0.00 27 1015.7
20260503211823 96 161 0.0 0.0 0.00 0.00 0.00 27 1015.4
20260503211319 95 161 0.0 0.0 0.00 0.00 0.00 30 1015.5
20260503210819 97 161 0.0 0.0 0.00 0.00 0.00 28 1015.4
20260503210317 98 161 0.0 0.0 0.00 0.00 0.00 25 1015.7
20260503205812 99 161 0.0 0.0 0.00 0.00 0.00 24 1015.8
20260503205309 99 161 0.0 0.0 0.00 0.00 0.00 27 1015.9
20260503204805 97 161 0.0 0.0 0.00 0.00 0.00 29 1015.9
20260503204303 99 161 0.0 0.0 0.00 0.00 0.00 24 1015.9
20260503203800 97 161 0.0 0.0 0.00 0.00 0.00 27 1016.3
20260503203257 96 160 0.0 0.0 0.00 0.00 0.00 27 1016.4
20260503202754 94 161 0.0 0.0 0.00 0.00 0.00 31 1016.2
20260503202252 96 160 0.0 0.0 0.00 0.00 0.00 26 1016.4
20260503201744 95 160 0.0 0.0 0.00 0.00 0.00 28 1016.3
20260503201241 95 161 0.0 0.0 0.00 0.00 0.00 26 1016.5
20260503200738 96 160 0.0 0.0 0.00 0.00 0.00 30 1016.3
20260503200234 95 160 0.0 0.0 0.00 0.00 0.00 27 1016.4
20260503195731 95 160 0.0 0.0 0.00 0.00 0.00 26 1016.6
20260503195228 97 160 0.0 0.0 0.00 0.00 0.00 27 1016.8
20260503194726 94 160 0.0 0.0 0.00 0.00 0.00 30 1016.9
20260503194221 95 160 0.0 0.0 0.00 0.00 0.00 32 1016.9
20260503193717 93 160 0.0 0.0 0.00 0.00 0.00 30 1016.9
20260503193214 95 160 0.0 0.0 0.00 0.00 0.00 29 1016.9
20260503192709 94 160 0.0 0.0 0.00 0.00 0.00 33 1017.2
20260503192205 93 160 0.0 0.0 0.00 0.00 0.00 28 1017.2
20260503191702 91 160 0.0 0.0 0.00 0.00 0.00 33 1017.1
20260503191159 92 160 0.0 0.0 0.00 0.00 0.00 30 1017.1
20260503190656 93 160 0.0 0.0 0.00 0.00 0.00 30 1017.3
20260503190152 94 160 0.0 0.0 0.00 0.00 0.00 31 1017.4
20260503185649 94 160 0.0 0.0 0.00 0.00 0.00 31 1017.5
20260503185144 93 160 0.0 0.0 0.00 0.00 0.00 35 1017.5
20260503184639 94 160 0.0 0.0 0.00 0.00 0.00 31 1017.6
20260503184136 96 160 0.0 0.0 0.00 0.00 0.00 30 1017.8
20260503183633 95 160 0.0 0.0 0.00 0.00 0.00 33 1017.9
20260503183130 92 160 0.0 0.0 0.00 0.00 0.00 35 1017.9
20260503182628 91 160 0.0 0.0 0.00 0.00 0.00 33 1017.7
20260503182126 89 160 0.0 0.0 0.00 0.00 0.00 34 1018.0
20260503181623 89 160 0.0 0.0 0.00 0.00 0.00 34 1018.1
20260503181120 90 161 0.0 0.0 0.00 0.00 0.00 31 1018.1
20260503180617 89 160 0.0 0.0 0.00 0.00 0.00 34 1018.4
20260503180115 87 161 0.0 0.0 0.00 0.00 0.00 37 1018.4
20260503175611 84 161 0.0 0.0 0.00 0.00 0.00 41 1018.6
20260503175108 85 161 0.0 0.0 0.00 0.00 0.00 35 1018.7
20260503174605 85 161 0.0 0.0 0.00 0.00 0.00 39 1018.6
20260503174102 86 161 0.0 0.0 0.00 0.00 0.00 37 1018.7
20260503173557 84 161 0.0 0.0 0.00 0.00 0.00 39 1018.9
20260503173054 83 161 0.0 0.0 0.00 0.00 0.00 38 1018.9
20260503172551 83 161 0.0 0.0 0.00 0.00 0.00 36 1019.0
20260503172048 83 160 0.0 0.0 0.00 0.00 0.00 42 1018.9
20260503171544 84 160 0.0 0.0 0.00 0.00 0.00 37 1019.0
20260503171042 83 161 0.0 0.0 0.00 0.00 0.00 43 1019.2
20260503170538 84 160 0.0 0.0 0.00 0.00 0.00 39 1019.3
20260503150924 64 161 0.0 0.0 0.00 0.00 0.00 56 1020.2
20260503150421 62 161 0.0 0.0 0.00 0.00 0.00 57 1020.4
20260503131314 50 161 0.0 0.0 0.00 0.00 0.00 74 1021.1
20260503130812 50 161 0.0 0.0 0.00 0.00 0.00 74 1021.0
20260503130309 49 161 0.0 0.0 0.00 0.00 0.00 75 1020.9
20260503110703 41 160 0.0 0.0 0.00 0.00 0.00 87 1020.5
20260503110200 41 160 0.0 0.0 0.00 0.00 0.00 87 1020.6
20260503100126 42 160 0.0 0.0 0.00 0.00 0.00 86 1020.9
20260503081504 42 161 0.0 0.0 0.00 0.00 0.00 85 1021.7
20260503081001 42 161 0.0 0.0 0.00 0.00 0.00 85 1021.4
20260503080457 42 161 0.0 0.0 0.00 0.00 0.00 85 1021.4
20260503072934 44 161 0.0 0.0 0.00 0.00 0.00 82 1021.7
20260503072431 43 161 0.0 0.0 0.00 0.00 0.00 83 1021.9
20260503071928 43 161 0.0 0.0 0.00 0.00 0.00 83 1021.9
20260503071425 43 161 0.0 0.0 0.00 0.00 0.00 84 1021.8
20260503070921 43 161 0.0 0.0 0.00 0.00 0.00 84 1022.0
20260503070418 43 161 0.0 0.0 0.00 0.00 0.00 84 1022.0
20260503054832 41 161 0.0 0.0 0.00 0.00 0.00 89 1022.5
20260503054327 41 161 0.0 0.0 0.00 0.00 0.00 89 1022.5
20260503053825 42 161 0.0 0.0 0.00 0.00 0.00 88 1022.8
20260503053318 42 161 0.0 0.0 0.00 0.00 0.00 88 1022.6
20260503052814 42 161 0.0 0.0 0.00 0.00 0.00 88 1022.4
20260503052311 42 161 0.0 0.0 0.00 0.00 0.00 87 1022.6
20260503051807 43 161 0.0 0.0 0.00 0.00 0.00 86 1022.7
20260503051304 43 161 0.0 0.0 0.00 0.00 0.00 86 1022.3
20260503050801 42 161 0.0 0.0 0.00 0.00 0.00 88 1022.6
20260503050257 42 161 0.0 0.0 0.00 0.00 0.00 88 1022.5
20260503045754 42 161 0.0 0.0 0.00 0.00 0.00 88 1022.5
20260503045252 42 161 0.0 0.0 0.00 0.00 0.00 89 1022.5
20260503044748 43 161 0.0 0.0 0.00 0.00 0.00 88 1022.5
20260503044245 43 161 0.0 0.0 0.00 0.00 0.00 88 1022.6
20260503043743 43 161 0.0 0.0 0.00 0.00 0.00 88 1022.5
20260503043240 43 161 0.0 0.0 0.00 0.00 0.00 87 1022.5
20260503042735 43 161 0.0 0.0 0.00 0.00 0.00 88 1022.5
20260503042232 43 161 0.0 0.0 0.00 0.00 0.00 88 1022.4
20260503041728 43 161 0.0 0.0 0.00 0.00 0.00 89 1022.4
20260503041226 42 161 0.0 0.0 0.00 0.00 0.00 90 1022.5
20260503040723 42 161 0.0 0.0 0.00 0.00 0.00 89 1022.4
20260503040220 42 161 0.0 0.0 0.00 0.00 0.00 89 1022.5
20260503035717 43 161 0.0 0.0 0.00 0.00 0.00 88 1022.5
20260503035215 43 161 0.0 0.0 0.00 0.00 0.00 88 1022.7
20260503034712 43 161 0.0 0.0 0.00 0.00 0.00 88 1022.6
20260503034209 44 161 0.0 0.0 0.00 0.00 0.00 87 1022.5
20260503033706 44 161 0.0 0.0 0.00 0.00 0.00 88 1022.8
20260503033203 44 161 0.0 0.0 0.00 0.00 0.00 87 1022.7
20260503032701 44 161 0.0 0.0 0.00 0.00 0.00 87 1022.7
20260503032200 44 161 0.0 0.0 0.00 0.00 0.00 88 1022.6
20260503031656 43 161 0.0 0.0 0.00 0.00 0.00 88 1022.5
20260503031155 43 161 0.0 0.0 0.00 0.00 0.00 88 1022.5
20260503030650 44 161 0.0 0.0 0.00 0.00 0.00 87 1022.6
20260503030147 44 161 0.0 0.0 0.00 0.00 0.00 85 1022.4
20260503025644 44 161 0.0 0.0 0.00 0.00 0.00 85 1022.4
20260503025142 45 161 0.0 0.0 0.00 0.00 0.00 85 1022.6
20260503024638 45 161 0.0 0.0 0.00 0.00 0.00 84 1022.4
20260503024136 45 161 0.0 0.0 0.00 0.00 0.00 84 1022.4
20260503023632 45 161 0.0 0.0 0.00 0.00 0.00 83 1022.5
20260503023129 45 161 0.0 0.0 0.00 0.00 0.00 82 1022.3
20260503022625 46 161 0.0 0.0 0.00 0.00 0.00 80 1022.3
20260503022120 47 161 0.0 0.0 0.00 0.00 0.00 79 1022.3
20260503021617 47 161 0.0 0.0 0.00 0.00 0.00 77 1022.0
20260503021114 48 161 0.0 0.0 0.00 0.00 0.00 77 1022.3
20260503020611 48 161 0.0 0.0 0.00 0.00 0.00 73 1022.2
20260503020108 49 161 0.0 0.0 0.00 0.00 0.00 72 1022.1
20260503015605 50 161 0.0 0.0 0.00 0.00 0.00 68 1022.0
20260503015102 50 161 0.0 0.0 0.00 0.00 0.00 71 1022.0
20260503014557 50 161 0.0 0.0 0.00 0.00 0.00 70 1022.0
20260503014055 50 161 0.0 0.0 0.00 0.00 0.00 67 1022.0
20260503013552 51 161 0.0 0.0 0.00 0.00 0.00 66 1022.1
20260503013050 52 161 0.0 0.0 0.00 0.00 0.00 66 1021.8
20260503012548 53 161 0.0 0.0 0.00 0.00 0.00 64 1022.0
20260503012044 53 161 0.0 0.0 0.00 0.00 0.00 58 1021.9
20260503011540 54 161 0.0 0.0 0.00 0.00 0.00 61 1022.1
20260503011038 55 161 0.0 0.0 0.00 0.00 0.00 57 1021.7
20260503010534 56 161 0.0 0.0 0.00 0.00 0.00 56 1021.8
20260503010032 57 161 0.0 0.0 0.00 0.00 0.00 55 1021.9
20260503005528 58 161 0.0 0.0 0.00 0.00 0.00 53 1021.8
20260503005026 60 161 0.0 0.0 0.00 0.00 0.00 50 1021.8
20260503004522 61 161 0.0 0.0 0.00 0.00 0.00 47 1021.7
20260503004020 62 161 0.0 0.0 0.00 0.00 0.00 50 1021.8
20260503003516 63 161 0.0 0.0 0.00 0.00 0.00 46 1021.8
20260503003014 64 161 0.0 0.0 0.00 0.00 0.00 45 1021.6
20260503002511 64 161 0.0 0.0 0.00 0.00 0.00 41 1021.8
20260503002007 65 161 0.0 0.0 0.00 0.00 0.00 42 1021.7
20260503001504 66 161 0.0 0.0 0.00 0.00 0.00 40 1021.7
20260503001001 66 161 0.0 0.0 0.00 0.00 0.00 41 1021.6
20260503000459 66 161 0.0 0.0 0.00 0.00 0.00 39 1021.7
20260502235955 66 161 0.0 0.0 0.00 0.00 0.00 41 1021.6
20260502235452 65 161 0.0 0.0 0.00 0.00 0.00 40 1021.4
20260502234950 66 161 0.0 0.0 0.00 0.00 0.00 39 1021.4